Weather History for KJLN - February, 2013

Change the Weather History Date:

Thursday, February 21, 2013

  Actual Average Record
Temperature  
Mean Temperature 31 °F 42 °F  
Max Temperature 33 °F 52 °F 76 °F (1996)
Min Temperature 28 °F 31 °F 9 °F (1963)
Degree Days  
Heating Degree Days 34 23  
Month to date heating degree days 538 550  
Since 1 July heating degree days 2891 3099  
Cooling Degree Days 0 0  
Month to date cooling degree days 0 0  
Year to date cooling degree days 1 0  
Moisture  
Dew Point 28 °F    
Average Humidity 85    
Maximum Humidity 100    
Minimum Humidity 69    
Precipitation  
Precipitation 1.05 in 0.09 in 1.05 in (2013)
Month to date precipitation 1.88 1.67  
Year to date precipitation 4.33 3.70  
Snow  
Snow 1.50 in - - ()
Month to date snowfall 1.8  
Snow Depth 2.00 in    
Sea Level Pressure  
Sea Level Pressure 29.84 in    
Wind  
Wind Speed 12 mph (East)    
Max Wind Speed 22 mph    
Max Gust Speed 29 mph    
Visibility 5 miles    
Events Fog , Rain , Snow , Thunderstorm    
T = Trace of Precipitation, MM = Missing Value Source: NWS Daily Summary

Daily Weather History Graph

Daily Weather History Graph

Search for Another Location

Airport or City:

Trip Planner

Search our weather history database for the weather conditions in past years. The results will help you decide how hot, cold, wet, or windy it might be!

Date:

Astronomy

Feb. 21, 2013 Rise Set
Actual Time 6:59 AM CST 6:04 PM CST
Civil Twilight 6:32 AM CST 6:30 PM CST
Nautical Twilight 6:02 AM CST 7:01 PM CST
Astronomical Twilight 5:32 AM CST 7:31 PM CST
Moon 2:23 PM CST (2/21) 4:00 AM CST (2/21)
Length of Visible Light 11h 57m
Length of Day
11h 05m
Waxing Gibbous, 84% of the Moon is Illuminated
Feb 21
Waxing Gibbous
Feb 25
Full
Mar 4
Last Quarter
Mar 11
New
Mar 19
First Quarter

Hourly Weather History & Observations

Time (CST) Temp. Windchill Dew Point Humidity Pressure Visibility Wind Dir Wind Speed Gust Speed Precip Events Conditions
12:26 AM 30.2 °F 20.8 °F 21.2 °F 69% 30.08 in 10.0 mi East 11.5 mph - 0.00 in   Overcast
12:53 AM 30.0 °F 21.1 °F 21.0 °F 69% 30.09 in 10.0 mi East 10.4 mph 19.6 mph 0.00 in   Overcast
1:53 AM 30.0 °F 19.1 °F 21.0 °F 69% 30.06 in 10.0 mi East 15.0 mph 19.6 mph 0.00 in   Overcast
2:53 AM 30.0 °F 18.3 °F 21.0 °F 69% 30.01 in 10.0 mi East 17.3 mph 25.3 mph 0.01 in   Overcast
3:03 AM 28.4 °F 17.5 °F 21.2 °F 74% 29.97 in 8.0 mi East 13.8 mph 25.3 mph 0.00 in Rain Light Freezing Rain
3:53 AM 28.4 °F 15.8 °F 21.2 °F 74% 29.93 in 10.0 mi East 18.4 mph 23.0 mph N/A Rain Light Freezing Rain
4:20 AM 28.4 °F 17.5 °F 23.0 °F 80% 29.94 in 3.0 mi East 13.8 mph - 0.06 in Rain Light Freezing Rain
4:53 AM 28.9 °F 18.2 °F 25.0 °F 85% 29.94 in 5.0 mi East 13.8 mph 21.9 mph 0.12 in Rain Light Freezing Rain
5:05 AM 28.4 °F 17.0 °F 24.8 °F 86% 29.90 in 10.0 mi East 15.0 mph - 0.00 in Rain , Thunderstorm Light Freezing Rain
5:14 AM 28.4 °F 17.0 °F 24.8 °F 86% 29.87 in 5.0 mi East 15.0 mph 24.2 mph 0.03 in Rain Light Freezing Rain
5:27 AM 28.4 °F 21.2 °F 26.6 °F 93% 29.93 in 3.0 mi Variable 6.9 mph 25.3 mph 0.06 in Rain , Thunderstorm Light Freezing Rain
5:47 AM 28.4 °F 17.0 °F 26.6 °F 93% 29.88 in 3.0 mi ENE 15.0 mph 26.5 mph 0.16 in Rain , Thunderstorm Light Freezing Rain
5:53 AM 28.9 °F 18.2 °F 27.0 °F 92% 29.92 in 3.0 mi NE 13.8 mph 26.5 mph 0.17 in Rain Light Freezing Rain
6:05 AM 28.4 °F 16.2 °F 26.6 °F 93% 29.86 in 4.0 mi East 17.3 mph 24.2 mph 0.01 in Rain , Thunderstorm Light Freezing Rain
6:12 AM 28.4 °F 16.2 °F 26.6 °F 93% 29.86 in 3.0 mi East 17.3 mph 24.2 mph 0.03 in Rain , Thunderstorm Light Freezing Rain
6:17 AM 28.4 °F 15.4 °F 26.6 °F 93% 29.83 in 2.5 mi East 19.6 mph 26.5 mph 0.05 in Thunderstorm Overcast
6:27 AM 28.4 °F 17.5 °F 26.6 °F 93% 29.83 in 2.5 mi East 13.8 mph 25.3 mph 0.08 in Rain Light Freezing Rain
6:48 AM 28.4 °F 18.0 °F 26.6 °F 93% 29.84 in 2.5 mi East 12.7 mph 19.6 mph 0.13 in Rain Light Freezing Rain
6:53 AM 28.9 °F 16.5 °F 26.1 °F 89% 29.85 in 3.0 mi East 18.4 mph 24.2 mph 0.13 in   Overcast
6:55 AM 28.4 °F 16.6 °F 26.6 °F 93% 29.82 in 3.0 mi East 16.1 mph 24.2 mph 0.00 in Rain Light Freezing Rain
7:02 AM 28.4 °F 16.2 °F 26.6 °F 93% 29.81 in 4.0 mi East 17.3 mph 24.2 mph 0.00 in Rain Light Freezing Rain
7:06 AM 28.4 °F 16.2 °F 26.6 °F 93% 29.79 in 4.0 mi East 17.3 mph 24.2 mph 0.00 in Snow Light Snow
7:11 AM 28.4 °F 15.4 °F 26.6 °F 93% 29.80 in 2.5 mi East 19.6 mph 25.3 mph 0.01 in Snow Light Snow
7:26 AM 28.4 °F 17.5 °F 26.6 °F 93% 29.79 in 3.0 mi East 13.8 mph 24.2 mph 0.01 in Snow Light Snow
7:33 AM 28.4 °F 18.0 °F 26.6 °F 93% 29.81 in 4.0 mi East 12.7 mph 20.7 mph 0.03 in Rain Light Freezing Rain
7:43 AM 30.2 °F 21.9 °F 28.4 °F 93% 29.82 in 5.0 mi East 9.2 mph - 0.05 in Rain Light Freezing Rain
7:53 AM 30.0 °F 21.1 °F 28.0 °F 92% 29.95 in 8.0 mi WNW 10.4 mph - 0.05 in Rain Light Freezing Rain
8:17 AM 30.2 °F 23.4 °F 28.4 °F 93% 29.89 in 2.0 mi NNE 6.9 mph - 0.12 in Thunderstorm Thunderstorms and Ice Pellets
8:21 AM 30.2 °F 21.9 °F 28.4 °F 93% 29.87 in 1.5 mi NNE 9.2 mph - 0.15 in Thunderstorm Thunderstorms and Ice Pellets
8:39 AM 30.2 °F 23.4 °F 28.4 °F 93% 29.89 in 1.0 mi NE 6.9 mph - 0.24 in   Ice Pellets
8:43 AM 30.2 °F 24.3 °F 28.4 °F 93% 29.91 in 0.5 mi North 5.8 mph - 0.25 in Fog Ice Pellets
8:53 AM 28.9 °F 22.8 °F 28.0 °F 96% 29.90 in 0.2 mi NE 5.8 mph 16.1 mph 0.26 in Fog Ice Pellets
9:06 AM 28.4 °F 19.1 °F 28.4 °F 100% 29.87 in 0.2 mi NE 10.4 mph - 0.03 in Fog Light Freezing Fog
9:53 AM 30.0 °F 21.1 °F 28.0 °F 92% 29.88 in 0.2 mi ENE 10.4 mph 18.4 mph 0.16 in Fog Light Freezing Fog
10:09 AM 28.4 °F 17.5 °F 28.4 °F 100% 29.84 in 0.8 mi East 13.8 mph - 0.05 in   Overcast
10:23 AM 30.2 °F 20.2 °F 28.4 °F 93% 29.82 in 1.0 mi East 12.7 mph - 0.08 in   Overcast
10:40 AM 30.2 °F 19.3 °F 28.4 °F 93% 29.81 in 2.0 mi East 15.0 mph 19.6 mph 0.11 in Rain Light Freezing Rain
10:49 AM 30.2 °F 17.4 °F 28.4 °F 93% 29.80 in 4.0 mi East 20.7 mph 28.8 mph 0.12 in Rain Light Freezing Rain
10:53 AM 30.9 °F 19.4 °F 28.9 °F 92% 29.84 in 6.0 mi East 17.3 mph 28.8 mph 0.12 in Rain Light Freezing Rain
11:13 AM 30.2 °F 19.3 °F 28.4 °F 93% 29.79 in 9.0 mi East 15.0 mph 26.5 mph 0.00 in   Overcast
11:21 AM 30.2 °F 20.8 °F 28.4 °F 93% 29.82 in 10.0 mi ESE 11.5 mph 23.0 mph 0.00 in   Overcast
11:34 AM 30.2 °F 18.9 °F 28.4 °F 93% 29.80 in 7.0 mi East 16.1 mph 23.0 mph 0.00 in Rain Light Freezing Rain
11:53 AM 30.9 °F 20.2 °F 28.0 °F 89% 29.80 in 6.0 mi East 15.0 mph 23.0 mph 0.01 in Rain Light Freezing Rain
12:00 PM 30.2 °F 20.2 °F 28.4 °F 93% 29.77 in 6.0 mi East 12.7 mph 23.0 mph 0.00 in Rain Light Freezing Rain
12:07 PM 30.2 °F 19.8 °F 28.4 °F 93% 29.76 in 7.0 mi East 13.8 mph 24.2 mph 0.00 in Rain Light Freezing Rain
12:53 PM 30.9 °F 20.7 °F 28.0 °F 89% 29.77 in 8.0 mi ESE 13.8 mph 23.0 mph 0.00 in   Overcast
1:24 PM 30.2 °F 20.2 °F 28.4 °F 93% 29.73 in 4.0 mi East 12.7 mph - 0.00 in   Light Freezing Drizzle
1:53 PM 30.9 °F 21.7 °F 28.9 °F 92% 29.74 in 2.5 mi East 11.5 mph - 0.00 in   Light Freezing Drizzle
2:12 PM 30.2 °F 21.9 °F 28.4 °F 93% 29.71 in 1.8 mi East 9.2 mph - 0.00 in   Light Freezing Drizzle
2:53 PM 30.9 °F 21.7 °F 28.9 °F 92% 29.73 in 3.0 mi ESE 11.5 mph - 0.00 in   Overcast
3:50 PM 30.2 °F 20.2 °F 30.2 °F 100% 29.71 in 2.0 mi ESE 12.7 mph 18.4 mph 0.00 in   Light Freezing Drizzle
3:53 PM 30.9 °F 21.7 °F 30.0 °F 96% 29.73 in 2.0 mi ESE 11.5 mph 18.4 mph 0.00 in   Light Freezing Drizzle
4:53 PM 32.0 °F 24.8 °F 30.0 °F 92% 29.75 in 2.0 mi SE 8.1 mph - 0.00 in   Light Freezing Drizzle
5:53 PM 32.0 °F 25.6 °F 30.0 °F 92% 29.77 in 2.0 mi SE 6.9 mph - 0.00 in   Light Freezing Drizzle
6:53 PM 32.0 °F 24.8 °F 30.9 °F 96% 29.77 in 2.0 mi SSE 8.1 mph - 0.00 in   Light Freezing Drizzle
6:57 PM 32.0 °F 24.8 °F 30.2 °F 93% 29.75 in 2.0 mi SSE 8.1 mph - 0.00 in   Light Freezing Drizzle
7:18 PM 32.0 °F 25.6 °F 30.2 °F 93% 29.75 in 2.0 mi SSE 6.9 mph - 0.00 in Snow Light Snow
7:53 PM 32.0 °F 24.8 °F 30.9 °F 96% 29.78 in 2.0 mi South 8.1 mph - 0.01 in Snow Light Snow
8:53 PM 33.8 °F 27.0 °F 32.0 °F 93% 29.77 in 2.5 mi SSW 8.1 mph - N/A   Overcast
9:04 PM 33.8 °F 25.3 °F 32.0 °F 93% 29.78 in 3.0 mi SW 11.5 mph - 0.00 in Snow Light Snow
9:14 PM 33.8 °F 24.3 °F 30.2 °F 87% 29.79 in 6.0 mi SW 13.8 mph - 0.00 in Rain Light Rain
9:23 PM 33.8 °F 25.8 °F 32.0 °F 93% 29.79 in 10.0 mi WSW 10.4 mph - 0.00 in Rain Light Freezing Rain
9:39 PM 33.8 °F 25.8 °F 32.0 °F 93% 29.79 in 10.0 mi SW 10.4 mph - 0.00 in Rain Light Freezing Rain
9:51 PM 33.8 °F 25.8 °F 32.0 °F 93% 29.79 in 10.0 mi SW 10.4 mph - 0.00 in   Overcast
9:53 PM 33.1 °F 24.4 °F 32.0 °F 96% 29.81 in 10.0 mi SW 11.5 mph - 0.00 in   Overcast
10:53 PM 33.1 °F 24.4 °F 30.9 °F 92% 29.84 in 10.0 mi SW 11.5 mph - N/A   Overcast
11:02 PM 33.8 °F 23.9 °F 30.2 °F 87% 29.82 in 10.0 mi SW 15.0 mph - N/A   Overcast
11:41 PM 33.8 °F 24.3 °F 30.2 °F 87% 29.83 in 10.0 mi SW 13.8 mph 27.6 mph N/A   Overcast
11:53 PM 33.1 °F 23.0 °F 30.0 °F 89% 29.86 in 10.0 mi SW 15.0 mph 23.0 mph N/A   Overcast